VLG1005 LEMD-LEBL

Flight info

Callsign VLG1005
Flight time 0h 49m
Altitude 30000
Route PINAR N870 PONEN T600 CASPE
Aircraft A319/M-SDE3FGHIRWY/LB1

Departure

Time 2026-05-07 13:12
Airport Adolfo Suárez Madrid–Barajas Airport (LEMD)

Arrival

Time 2026-05-07 14:02
Airport Josep Tarradellas Barcelona-El Prat Airport (LEBL)
Time Latitude Longitude Altitude Speed Heading
2026-05-07 12:46 40.48798 -3.58961 1995 ft 0 kts 271°
2026-05-07 12:50 40.48799 -3.58941 2033 ft 2 kts 262°
2026-05-07 12:51 40.48803 -3.58920 2028 ft 2 kts 246°
2026-05-07 12:51 40.48812 -3.58902 2032 ft 2 kts 227°
2026-05-07 12:51 40.48825 -3.58889 2033 ft 2 kts 207°
2026-05-07 12:51 40.48841 -3.58881 2025 ft 2 kts 193°
2026-05-07 12:52 40.48856 -3.58878 2029 ft 2 kts 182°
2026-05-07 12:52 40.48860 -3.58878 2027 ft 0 kts 178°
2026-05-07 12:53 40.48842 -3.58877 2025 ft 7 kts 178°
2026-05-07 12:54 40.48764 -3.58859 2030 ft 14 kts 129°
2026-05-07 12:54 40.48758 -3.58710 2022 ft 20 kts 90°
2026-05-07 12:54 40.48760 -3.58488 2018 ft 29 kts 90°
2026-05-07 12:54 40.48759 -3.58194 2008 ft 34 kts 89°
2026-05-07 12:55 40.48763 -3.57863 1997 ft 38 kts 89°
2026-05-07 12:55 40.48763 -3.57521 1990 ft 37 kts 89°
2026-05-07 12:55 40.48763 -3.57217 1983 ft 20 kts 90°
2026-05-07 12:55 40.48848 -3.57115 1981 ft 19 kts 353°
2026-05-07 12:56 40.48986 -3.57115 1981 ft 21 kts
2026-05-07 12:56 40.49055 -3.57234 1983 ft 19 kts 270°
2026-05-07 12:56 40.49118 -3.57382 1985 ft 20 kts 315°
2026-05-07 12:56 40.49233 -3.57447 1984 ft 19 kts 359°
2026-05-07 12:57 40.49364 -3.57452 1983 ft 16 kts
2026-05-07 12:57 40.49380 -3.57451 1983 ft 0 kts
2026-05-07 12:58 40.49386 -3.57451 1983 ft 3 kts
2026-05-07 12:58 40.49453 -3.57449 1985 ft 19 kts
2026-05-07 12:58 40.49535 -3.57559 1985 ft 25 kts 248°
2026-05-07 12:58 40.49508 -3.57773 1993 ft 20 kts 271°
2026-05-07 12:59 40.49469 -3.57925 1998 ft 18 kts 195°
2026-05-07 12:59 40.49383 -3.57929 1999 ft 0 kts 179°
2026-05-07 13:02 40.49379 -3.57929 1999 ft 3 kts 179°
2026-05-07 13:02 40.49301 -3.57926 1998 ft 21 kts 178°
2026-05-07 13:02 40.49106 -3.57927 1998 ft 32 kts 179°
2026-05-07 13:03 40.48875 -3.57926 1999 ft 34 kts 180°
2026-05-07 13:03 40.48635 -3.57923 1999 ft 31 kts 176°
2026-05-07 13:03 40.48432 -3.57801 1991 ft 24 kts 146°
2026-05-07 13:03 40.48427 -3.57708 1993 ft 15 kts 62°
2026-05-07 13:04 40.48420 -3.57541 1995 ft 22 kts 130°
2026-05-07 13:04 40.48389 -3.57499 1998 ft 0 kts 142°
2026-05-07 13:06 40.48386 -3.57496 1998 ft 2 kts 142°
2026-05-07 13:06 40.48357 -3.57466 1999 ft 10 kts 141°
2026-05-07 13:06 40.48276 -3.57379 2001 ft 19 kts 139°
2026-05-07 13:07 40.48177 -3.57350 2004 ft 17 kts 244°
2026-05-07 13:07 40.48207 -3.57528 1999 ft 22 kts 293°
2026-05-07 13:07 40.48339 -3.57718 1994 ft 31 kts 323°
2026-05-07 13:07 40.48464 -3.57797 1993 ft 18 kts
2026-05-07 13:08 40.48484 -3.57763 1993 ft 0 kts 104°
2026-05-07 13:11 40.48484 -3.57760 1993 ft 3 kts 104°
2026-05-07 13:11 40.48461 -3.57663 1993 ft 20 kts 109°
2026-05-07 13:11 40.48330 -3.57438 2000 ft 63 kts 141°
2026-05-07 13:12 40.47748 -3.56842 1995 ft 145 kts 142°
2026-05-07 13:12 40.46777 -3.55864 2274 ft 188 kts 140°
2026-05-07 13:12 40.45683 -3.54780 2877 ft 217 kts 142°
2026-05-07 13:12 40.44369 -3.53503 3534 ft 241 kts 144°
2026-05-07 13:13 40.43142 -3.51998 4613 ft 243 kts 129°
2026-05-07 13:13 40.42080 -3.50286 5951 ft 242 kts 130°
2026-05-07 13:13 40.40970 -3.48560 6858 ft 251 kts 133°
2026-05-07 13:13 40.39768 -3.46870 7912 ft 255 kts 136°
2026-05-07 13:14 40.38495 -3.45220 8963 ft 260 kts 138°
2026-05-07 13:14 40.37182 -3.43596 9971 ft 265 kts 139°
2026-05-07 13:14 40.35729 -3.42101 10942 ft 267 kts 150°
2026-05-07 13:14 40.34094 -3.40911 11891 ft 271 kts 154°
2026-05-07 13:15 40.32411 -3.39700 12886 ft 276 kts 149°
2026-05-07 13:15 40.31028 -3.37894 13744 ft 290 kts 123°
2026-05-07 13:15 40.30363 -3.35371 14525 ft 301 kts 97°
2026-05-07 13:15 40.30331 -3.32610 15368 ft 307 kts 90°
2026-05-07 13:16 40.30422 -3.29800 16230 ft 311 kts 89°
2026-05-07 13:16 40.30832 -3.26938 17075 ft 319 kts 70°
2026-05-07 13:16 40.31883 -3.24482 17880 ft 326 kts 51°
2026-05-07 13:16 40.33387 -3.22177 18630 ft 331 kts 50°
2026-05-07 13:17 40.34885 -3.19876 19402 ft 333 kts 50°
2026-05-07 13:17 40.36389 -3.17542 20137 ft 337 kts 51°
2026-05-07 13:17 40.37901 -3.15180 20866 ft 341 kts 51°
2026-05-07 13:17 40.39677 -3.13062 21384 ft 354 kts 36°
2026-05-07 13:18 40.41757 -3.11168 21586 ft 374 kts 34°
2026-05-07 13:18 40.43962 -3.09200 21778 ft 392 kts 34°
2026-05-07 13:18 40.46268 -3.07141 21974 ft 410 kts 35°
2026-05-07 13:18 40.48653 -3.04999 22461 ft 418 kts 35°
2026-05-07 13:19 40.51058 -3.02830 23147 ft 421 kts 35°
2026-05-07 13:19 40.53468 -3.00650 23731 ft 426 kts 35°
2026-05-07 13:19 40.55942 -2.98407 24271 ft 430 kts 35°
2026-05-07 13:19 40.58414 -2.96162 24786 ft 435 kts 36°
2026-05-07 13:20 40.60916 -2.93888 25322 ft 439 kts 36°
2026-05-07 13:20 40.63433 -2.91599 25823 ft 443 kts 36°
2026-05-07 13:20 40.65982 -2.89278 26329 ft 447 kts 36°
2026-05-07 13:20 40.68546 -2.86943 26821 ft 450 kts 36°
2026-05-07 13:21 40.71135 -2.84582 27307 ft 454 kts 36°
2026-05-07 13:21 40.73746 -2.82198 27763 ft 458 kts 36°
2026-05-07 13:21 40.76380 -2.79793 28212 ft 462 kts 36°
2026-05-07 13:21 40.79030 -2.77369 28646 ft 465 kts 36°
2026-05-07 13:22 40.81689 -2.74936 29073 ft 469 kts 36°
2026-05-07 13:22 40.84379 -2.72471 29487 ft 472 kts 36°
2026-05-07 13:22 40.87126 -2.69952 29875 ft 475 kts 36°
2026-05-07 13:22 40.89817 -2.67482 29952 ft 477 kts 36°
2026-05-07 13:23 40.95289 -2.62452 29946 ft 476 kts 36°
2026-05-07 13:23 41.00574 -2.57294 29940 ft 475 kts 45°
2026-05-07 13:24 41.02715 -2.53989 29935 ft 472 kts 58°
2026-05-07 13:24 41.04276 -2.50197 29936 ft 468 kts 71°
2026-05-07 13:24 41.05193 -2.46081 29933 ft 464 kts 84°
2026-05-07 13:24 41.05425 -2.41855 29943 ft 458 kts 96°
2026-05-07 13:25 41.04480 -2.33595 29939 ft 456 kts 99°
2026-05-07 13:25 41.04792 -2.25130 29941 ft 465 kts 84°
2026-05-07 13:26 41.06185 -2.16726 29942 ft 469 kts 79°
2026-05-07 13:26 41.07787 -2.08346 29937 ft 469 kts 79°
2026-05-07 13:27 41.09375 -1.99946 29938 ft 469 kts 80°
2026-05-07 13:27 41.10940 -1.91551 29937 ft 470 kts 80°
2026-05-07 13:28 41.12496 -1.83140 29940 ft 470 kts 80°
2026-05-07 13:28 41.14058 -1.74656 29934 ft 470 kts 80°
2026-05-07 13:29 41.15605 -1.66224 29932 ft 470 kts 80°
2026-05-07 13:29 41.17144 -1.57790 29931 ft 470 kts 81°
2026-05-07 13:30 41.18677 -1.49352 29930 ft 470 kts 81°
2026-05-07 13:30 41.20204 -1.40915 29936 ft 470 kts 81°
2026-05-07 13:31 41.21480 -1.33831 29935 ft 470 kts 81°
2026-05-07 13:31 41.22928 -1.25431 29936 ft 467 kts 86°
2026-05-07 13:32 41.23292 -1.16800 29937 ft 465 kts 92°
2026-05-07 13:32 41.23557 -1.08220 29942 ft 465 kts 92°
2026-05-07 13:33 41.23819 -0.99681 29941 ft 466 kts 92°
2026-05-07 13:33 41.24082 -0.91016 29941 ft 466 kts 92°
2026-05-07 13:34 41.24460 -0.78059 29934 ft 468 kts 92°
2026-05-07 13:35 41.24388 -0.69518 29935 ft 461 kts 105°
2026-05-07 13:35 41.23084 -0.61153 29934 ft 459 kts 107°
2026-05-07 13:36 41.21781 -0.52903 29933 ft 460 kts 107°
2026-05-07 13:36 41.20459 -0.44528 29933 ft 461 kts 107°
2026-05-07 13:37 41.19135 -0.36180 29928 ft 462 kts 108°
2026-05-07 13:37 41.17806 -0.27848 29927 ft 462 kts 108°
2026-05-07 13:38 41.16478 -0.19559 29919 ft 462 kts 108°
2026-05-07 13:38 41.15809 -0.15393 29699 ft 461 kts 108°
2026-05-07 13:38 41.15140 -0.11236 29417 ft 459 kts 108°
2026-05-07 13:38 41.14474 -0.07108 29124 ft 456 kts 108°
2026-05-07 13:39 41.13809 -0.03006 28846 ft 454 kts 108°
2026-05-07 13:39 41.13136 0.01138 28568 ft 452 kts 108°
2026-05-07 13:39 41.12475 0.05195 28295 ft 450 kts 107°
2026-05-07 13:39 41.11812 0.09249 28025 ft 449 kts 107°
2026-05-07 13:40 41.11151 0.13288 27753 ft 447 kts 107°
2026-05-07 13:40 41.10491 0.17308 27489 ft 445 kts 107°
2026-05-07 13:40 41.09832 0.21312 27223 ft 444 kts 107°
2026-05-07 13:40 41.09163 0.25363 26964 ft 443 kts 107°
2026-05-07 13:41 41.08516 0.29283 26708 ft 441 kts 107°
2026-05-07 13:41 41.07859 0.33247 26421 ft 439 kts 107°
2026-05-07 13:41 41.07201 0.37207 25846 ft 440 kts 107°
2026-05-07 13:41 41.06544 0.41152 25279 ft 437 kts 106°
2026-05-07 13:42 41.05890 0.45070 24699 ft 433 kts 106°
2026-05-07 13:42 41.05233 0.48998 24125 ft 429 kts 106°
2026-05-07 13:42 41.04598 0.52786 23557 ft 425 kts 105°
2026-05-07 13:42 41.03959 0.56586 22946 ft 421 kts 105°
2026-05-07 13:43 41.03321 0.60388 22386 ft 414 kts 105°
2026-05-07 13:43 41.03053 0.61986 22149 ft 411 kts 105°
2026-05-07 13:43 41.02452 0.65552 21616 ft 406 kts 105°
2026-05-07 13:43 41.01838 0.69189 21070 ft 401 kts 105°
2026-05-07 13:44 41.01224 0.72821 20518 ft 397 kts 105°
2026-05-07 13:44 41.00624 0.76368 19989 ft 392 kts 105°
2026-05-07 13:44 41.00038 0.79819 19466 ft 388 kts 105°
2026-05-07 13:44 40.99448 0.83291 18938 ft 384 kts 105°
2026-05-07 13:45 40.98857 0.86761 18414 ft 380 kts 105°
2026-05-07 13:45 40.98284 0.90122 17853 ft 377 kts 105°
2026-05-07 13:45 40.97727 0.93497 17140 ft 376 kts 104°
2026-05-07 13:45 40.97210 0.96960 16331 ft 379 kts 103°
2026-05-07 13:46 40.96726 1.00318 15880 ft 372 kts 103°
2026-05-07 13:46 40.96245 1.03638 15621 ft 365 kts 103°
2026-05-07 13:46 40.95759 1.06940 15187 ft 368 kts 103°
2026-05-07 13:46 40.95262 1.10267 14654 ft 368 kts 103°
2026-05-07 13:47 40.94768 1.13563 14130 ft 365 kts 102°
2026-05-07 13:47 40.94272 1.16853 13582 ft 362 kts 102°
2026-05-07 13:47 40.93784 1.20086 13059 ft 357 kts 102°
2026-05-07 13:47 40.93300 1.23287 12555 ft 352 kts 102°
2026-05-07 13:48 40.92822 1.26445 12057 ft 347 kts 102°
2026-05-07 13:48 40.92343 1.29599 11537 ft 344 kts 102°
2026-05-07 13:48 40.91875 1.32679 11035 ft 340 kts 102°
2026-05-07 13:48 40.91415 1.35692 10547 ft 337 kts 102°
2026-05-07 13:49 40.90952 1.38726 10248 ft 327 kts 102°
2026-05-07 13:49 40.90510 1.41619 10012 ft 316 kts 102°
2026-05-07 13:49 40.90076 1.44449 9608 ft 312 kts 102°
2026-05-07 13:49 40.89648 1.47242 9175 ft 308 kts 102°
2026-05-07 13:50 40.89224 1.49996 8763 ft 304 kts 102°
2026-05-07 13:50 40.88806 1.52711 8344 ft 301 kts 102°
2026-05-07 13:50 40.88390 1.55410 7874 ft 296 kts 102°
2026-05-07 13:50 40.87990 1.58002 7432 ft 287 kts 102°
2026-05-07 13:51 40.87712 1.60570 6981 ft 279 kts 87°
2026-05-07 13:51 40.88223 1.63015 6530 ft 271 kts 59°
2026-05-07 13:51 40.89472 1.64789 6101 ft 270 kts 33°
2026-05-07 13:51 40.91114 1.66005 5637 ft 269 kts 29°
2026-05-07 13:52 40.92771 1.67199 5181 ft 266 kts 30°
2026-05-07 13:52 40.94376 1.68364 4755 ft 268 kts 30°
2026-05-07 13:52 40.96018 1.69561 4289 ft 270 kts 30°
2026-05-07 13:52 40.97687 1.70714 4018 ft 265 kts 24°
2026-05-07 13:53 40.99392 1.71552 3965 ft 261 kts 21°
2026-05-07 13:53 41.01113 1.72394 3973 ft 264 kts 22°
2026-05-07 13:53 41.02822 1.73240 3970 ft 261 kts 22°
2026-05-07 13:53 41.04501 1.74069 3940 ft 262 kts 22°
2026-05-07 13:54 41.06237 1.74929 3706 ft 264 kts 22°
2026-05-07 13:54 41.07935 1.75770 3236 ft 262 kts 22°
2026-05-07 13:54 41.09634 1.76608 3017 ft 255 kts 22°
2026-05-07 13:54 41.11328 1.77448 2972 ft 261 kts 23°
2026-05-07 13:55 41.13001 1.78276 2984 ft 259 kts 22°
2026-05-07 13:55 41.14691 1.79113 2983 ft 260 kts 22°
2026-05-07 13:55 41.16386 1.79952 2995 ft 249 kts 22°
2026-05-07 13:55 41.17958 1.80728 2986 ft 234 kts 22°
2026-05-07 13:56 41.19347 1.81428 2986 ft 219 kts 26°
2026-05-07 13:56 41.20550 1.82473 2991 ft 202 kts 47°
2026-05-07 13:56 41.21394 1.83910 2988 ft 187 kts 61°
2026-05-07 13:56 41.21976 1.85345 2983 ft 167 kts 66°
2026-05-07 13:57 41.22448 1.86687 2989 ft 160 kts 68°
2026-05-07 13:57 41.22906 1.88019 3030 ft 149 kts 68°
2026-05-07 13:57 41.23324 1.89233 2880 ft 142 kts 68°
2026-05-07 13:57 41.23736 1.90433 2728 ft 144 kts 68°
2026-05-07 13:58 41.24157 1.91661 2536 ft 143 kts 68°
2026-05-07 13:58 41.24565 1.92851 2358 ft 142 kts 69°
2026-05-07 13:58 41.24976 1.94049 2174 ft 142 kts 68°
2026-05-07 13:58 41.25381 1.95222 1985 ft 137 kts 69°
2026-05-07 13:59 41.25763 1.96340 1806 ft 129 kts 69°
2026-05-07 13:59 41.26120 1.97376 1636 ft 118 kts 71°
2026-05-07 13:59 41.26459 1.98371 1489 ft 123 kts 71°
2026-05-07 13:59 41.26821 1.99431 1315 ft 123 kts 70°
2026-05-07 14:00 41.27169 2.00436 1121 ft 115 kts 70°
2026-05-07 14:00 41.27469 2.01323 982 ft 121 kts 69°
2026-05-07 14:00 41.27824 2.02354 832 ft 122 kts 69°
2026-05-07 14:00 41.28172 2.03373 643 ft 117 kts 69°
2026-05-07 14:01 41.28521 2.04390 485 ft 125 kts 69°
2026-05-07 14:01 41.28866 2.05388 321 ft 115 kts 69°
2026-05-07 14:01 41.29211 2.06406 200 ft 122 kts 69°
2026-05-07 14:01 41.29551 2.07367 35 ft 105 kts 69°
2026-05-07 14:02 41.29805 2.08144 5 ft 61 kts 66°
2026-05-07 14:02 41.29904 2.08466 7 ft 36 kts 76°
2026-05-07 14:02 41.29898 2.08793 4 ft 31 kts 120°
2026-05-07 14:02 41.29844 2.08791 4 ft 12 kts 237°
2026-05-07 14:03 41.29842 2.08786 4 ft 0 kts 240°
2026-05-07 14:03 41.29799 2.08672 3 ft 25 kts 248°
2026-05-07 14:03 41.29722 2.08437 5 ft 30 kts 245°
2026-05-07 14:03 41.29616 2.08229 3 ft 20 kts 174°
2026-05-07 14:04 41.29486 2.08309 4 ft 21 kts 156°
2026-05-07 14:04 41.29370 2.08329 3 ft 14 kts 240°
2026-05-07 14:04 41.29309 2.08217 3 ft 17 kts 193°
2026-05-07 14:04 41.29259 2.08212 3 ft 1 kts 181°
2026-05-07 14:05 41.29239 2.08211 3 ft 0 kts 182°